Regional Weather Roundup
Issued by NWS Little Rock, AR

Home | Current Version | Previous Version | Text Only | Print | Product List | Glossary Off
Versions: 1 2 3 4 5 6 7 8 9 10 11 12 13 14 15 16 17 18 19 20 21 22 23 24 25 26 27 28 29 30 31 32 33 34 35 36 37 38 39 40 41 42 43 44 45 46 47 48 49 50

000
ASUS44 KLZK 281805
RWRLZK

WEATHER ROUNDUP FOR ARKANSAS
NATIONAL WEATHER SERVICE LITTLE ROCK AR
1200 PM CST SUN DEC 28 2014

NOTE: "FAIR" INDICATES FEW OR NO CLOUDS BELOW 12,000 FEET WITH NO
SIGNIFICANT WEATHER AND/OR OBSTRUCTIONS TO VISIBILITY.

ARZ001-003-010-029-281900-
NORTHWEST ARKANSAS

CITY           SKY/WX    TMP DP  RH WIND       PRES   REMARKS
FAYETTEVILLE   CLOUDY    32  25  75 NE3       30.21F
6HR MIN TEMP:  27; 6HR MAX TEMP:  32;

FORT SMITH     CLOUDY    38  26  62 CALM      30.24F
6HR MIN TEMP:  32; 6HR MAX TEMP:  38;

HARRISON       CLOUDY    32  24  72 CALM      30.20F
6HR MIN TEMP:  27; 6HR MAX TEMP:  32;

BENTONVILLE    CLOUDY    32  23  69 CALM      30.22F
6HR MIN TEMP:  27; 6HR MAX TEMP:  32;

ROGERS         CLOUDY    32  27  81 NW3       30.21F
6HR MIN TEMP:  25; 6HR MAX TEMP:  32;

SILOAM SPGS    PTSUNNY   32  21  64 CALM      30.23F
6HR MIN TEMP:  27; 6HR MAX TEMP:  32;

HIGHFILL       CLOUDY    32  24  72 CALM      30.21F
6HR MIN TEMP:  26; 6HR MAX TEMP:  32;

SPRINGDALE     PTSUNNY   30  25  80 NE6       30.23F WCI  24
$$

ARZ004-005-016-281900-
NORTH CENTRAL ARKANSAS

CITY           SKY/WX    TMP DP  RH WIND       PRES   REMARKS
BATESVILLE     CLOUDY    36  28  75 NW3       30.22F
6HR MIN TEMP:  34; 6HR MAX TEMP:  36;

FLIPPIN        CLOUDY    34  21  60 N5        30.22F WCI  30
6HR MIN TEMP:  30; 6HR MAX TEMP:  34;

MTN HOME       CLOUDY    32  24  72 NW3       30.21F
6HR MIN TEMP:  29; 6HR MAX TEMP:  32;

$$

ARZ040-041-281900-
WEST CENTRAL ARKANSAS

CITY           SKY/WX    TMP DP  RH WIND       PRES   REMARKS
MENA           NOT AVBL
MOUNT IDA      CLOUDY    38  30  73 CALM      30.18F
6HR MIN TEMP:  33; 6HR MAX TEMP:  38;

$$

ARZ009-017-025-026-028-281900-
NORTHEAST ARKANSAS

CITY           SKY/WX    TMP DP  RH WIND       PRES   REMARKS
JONESBORO      CLOUDY    38  33  82 N6        30.20F
6HR MIN TEMP:  36; 6HR MAX TEMP:  38;

NEWPORT        CLOUDY    37  32  82 N8        30.23F
6HR MIN TEMP:  36; 6HR MAX TEMP:  38;

WALNUT RIDGE   CLOUDY    36  28  75 N9        30.22F
6HR MIN TEMP:  36; 6HR MAX TEMP:  36;

BLYTHEVILLE    CLOUDY    38  35  89 N12       30.22F
6HR MIN TEMP:  37; 6HR MAX TEMP:  38;

$$

ARZ022-023-033-042-044-281900-
CENTRAL ARKANSAS

CITY           SKY/WX    TMP DP  RH WIND       PRES   REMARKS
LITTLE ROCK    CLOUDY    39  30  70 N8        30.22F
6HR MIN TEMP:  37; 6HR MAX TEMP:  39;

N LITTLE ROCK  CLOUDY    36  33  87 N7        30.22F
6HR MIN TEMP:  35; 6HR MAX TEMP:  37;

JACKSONVILLE   CLOUDY    38  30  75 N5        30.21F
6HR MIN TEMP:  36; 6HR MAX TEMP:  38;

SEARCY         CLOUDY    38  31  76 N7        30.23F
6HR MIN TEMP:  35; 6HR MAX TEMP:  38;

HOT SPRINGS    CLOUDY    39  31  72 N6        30.20F
6HR MIN TEMP:  37; 6HR MAX TEMP:  39;

RUSSELLVILLE   CLOUDY    38  27  64 N8        30.22F
6HR MIN TEMP:  35; 6HR MAX TEMP:  38;

$$

ARZ036-281900-
EAST ARKANSAS

CITY           SKY/WX    TMP DP  RH WIND       PRES   REMARKS
WEST MEMPHIS   CLOUDY    40  38  93 NE9       30.18F
6HR MIN TEMP:  39; 6HR MAX TEMP:  41; 6HR PCP: TRACE;

$$

ARZ050-053-066-070-073-281900-
SOUTHWEST ARKANSAS

CITY           SKY/WX    TMP DP  RH WIND       PRES   REMARKS
ARKADELPHIA    CLOUDY    41  39  92 N6        30.22F
6HR MIN TEMP:  40; 6HR MAX TEMP:  41; 6HR PCP: TRACE;

CAMDEN         LGT RAIN  41  37  87 MISG      30.21F
TEXARKANA      CLOUDY    42  36  79 NE7       30.21F
6HR MIN TEMP:  37; 6HR MAX TEMP:  42; 6HR PCP: TRACE;

EL DORADO      CLOUDY    41  39  93 N6        30.20F
6HR MIN TEMP:  41; 6HR MAX TEMP:  42; 6HR PCP:  0.02;

DE QUEEN       CLOUDY    42  35  76 VRB3      30.20F
6HR MIN TEMP:  36; 6HR MAX TEMP:  42;

$$

ARZ056-057-069-281900-
SOUTHEAST ARKANSAS

CITY           SKY/WX    TMP DP  RH WIND       PRES   REMARKS
PINE BLUFF     LGT RAIN  39  35  86 N9        30.21F
6HR MIN TEMP:  39; 6HR MAX TEMP:  40; 6HR PCP:  0.01;

STUTTGART      CLOUDY    37  32  81 N9        30.21F
6HR MIN TEMP:  37; 6HR MAX TEMP:  39;

MONTICELLO     LGT RAIN  41  38  89 N6        30.19F
6HR MIN TEMP:  40; 6HR MAX TEMP:  41; 6HR PCP:  0.05;


$$





USA.gov is the U.S. government's official web portal to all federal, state and local government web resources and services.